Theta_e
315 317 319 320 318 320 321 322 328 327 325 322 319 323 320 319 321 319 321 322 321 319 319 320 320 321 324 328 329 327 327 331 336 336 335 335 338 338 339 339 336 335 334 333 334 334 331 329 331 332 332 332 332 333 332 332 331 330 328 327 326 326 326 325 323 323 321 318 318 318 315 312 310 308 306 304 307 310 317 323 324 329 330 330 327 312 304 306 306 308 308 308 310 311 313 316 318
315 318 319 319 318 320 323 324 328 325 325 320 317 321 319 321 323 320 322 321 321 320 319 320 321 323 324 326 326 327 331 333 335 336 337 336 338 339 339 338 335 335 334 333 334 334 332 329 330 331 331 331 332 333 333 332 331 330 329 328 327 327 326 325 322 322 321 318 318 318 316 314 311 309 308 305 307 313 321 324 323 326 328 326 323 312 305 307 307 308 309 310 311 313 316 318 320
315 318 319 319 320 322 325 325 323 324 325 320 315 318 319 322 323 320 321 319 320 320 319 321 321 322 324 328 327 332 334 332 333 334 336 338 338 339 339 337 336 336 333 333 333 334 332 328 329 329 329 330 331 332 332 331 331 330 329 328 327 327 327 325 322 321 321 318 318 319 317 315 313 310 309 306 307 314 319 321 323 325 327 325 320 312 306 307 308 307 309 311 312 315 317 319 320
315 319 319 321 325 325 327 325 325 327 322 318 315 316 320 321 322 320 320 319 320 320 320 320 320 321 326 330 327 331 333 329 329 331 336 338 338 338 338 338 338 336 334 333 332 333 332 328 327 328 327 329 331 331 332 331 330 330 329 327 326 327 327 326 322 321 321 319 318 319 318 315 314 311 310 308 309 316 320 324 326 327 328 329 327 316 307 306 307 307 308 311 313 316 318 319 321
316 319 321 322 327 326 326 325 328 328 319 322 319 317 321 320 321 319 318 319 319 320 321 320 319 322 325 327 327 332 334 330 328 327 332 336 337 336 337 339 338 336 335 334 332 332 332 329 326 327 327 329 331 330 331 331 329 329 328 326 325 326 327 327 323 320 321 319 318 319 319 316 315 313 310 310 310 314 322 327 328 329 329 330 329 317 307 307 307 307 307 309 314 317 319 321 322
317 320 321 322 325 323 326 324 321 321 317 323 321 318 321 318 319 318 317 319 319 320 320 320 319 321 324 326 329 332 333 331 329 326 327 333 335 335 336 339 338 337 336 336 335 332 331 330 327 326 326 329 330 329 329 329 329 329 329 326 325 325 327 328 324 321 321 320 318 318 320 318 316 314 310 310 309 310 321 329 328 330 330 329 327 313 306 307 306 307 306 308 313 316 319 321 322
319 322 322 323 325 322 328 325 317 319 317 319 319 319 320 317 318 317 318 319 318 319 319 320 319 318 323 326 328 330 331 329 328 325 326 329 331 335 337 339 339 337 336 337 336 334 332 330 328 326 326 328 329 329 329 329 329 329 330 327 325 326 326 327 326 322 321 320 318 317 319 320 317 315 311 310 309 309 318 327 328 329 329 329 324 310 306 307 306 306 306 308 311 314 317 319 320
320 322 323 325 328 326 328 323 317 321 318 316 318 319 318 317 317 317 318 318 318 318 319 319 320 319 320 323 325 329 330 329 326 324 327 325 327 335 338 339 339 338 337 337 337 335 332 330 329 328 328 328 328 329 329 330 329 328 330 329 327 326 326 327 327 324 321 320 319 316 318 320 319 317 313 310 309 308 311 319 325 327 328 325 317 308 306 306 306 306 306 308 310 312 312 313 315
321 323 323 322 327 327 323 319 317 319 317 317 318 318 318 318 318 317 317 318 318 317 319 319 320 320 320 323 324 326 327 328 326 324 328 323 327 336 339 339 338 338 337 337 337 336 334 331 331 330 329 328 327 328 328 330 329 329 329 329 328 327 326 326 327 325 322 319 318 316 316 319 320 318 314 310 309 309 308 311 316 320 322 317 310 306 307 306 305 306 307 308 310 310 311 313 315
321 323 322 325 329 324 318 318 318 317 316 317 317 318 318 319 318 318 317 317 317 317 319 318 319 320 321 324 324 324 320 322 322 324 327 326 333 337 337 339 338 338 338 337 337 336 335 333 332 331 330 330 329 327 327 328 328 329 329 329 329 327 325 325 327 326 323 321 317 316 316 318 320 319 315 312 309 309 308 308 309 311 312 309 307 306 306 305 306 307 308 309 310 311 313 316 317
322 322 320 326 330 322 318 318 317 316 316 316 316 318 318 319 317 316 317 317 318 318 319 317 319 320 320 321 324 324 318 317 317 319 324 331 335 335 336 338 337 338 338 337 337 337 336 334 334 333 332 332 331 329 327 326 326 328 329 329 329 327 326 326 326 325 324 323 319 317 316 317 320 320 316 312 310 309 308 308 306 306 306 306 306 305 305 305 306 308 309 311 311 313 316 318 318
323 324 323 325 326 323 320 318 318 317 316 317 316 317 317 317 317 315 316 317 317 317 317 318 318 319 319 319 323 324 319 317 316 316 322 331 334 334 336 337 337 337 337 337 337 337 336 335 335 334 334 333 334 332 329 327 325 326 329 330 329 326 325 326 326 326 325 324 321 318 317 317 320 320 317 313 310 309 308 306 305 305 305 305 305 305 305 306 307 309 311 313 314 315 318 319 319
322 324 326 326 328 326 321 318 319 319 316 317 316 316 317 316 317 316 316 316 316 317 316 317 317 318 320 319 324 327 322 317 317 316 319 328 332 334 335 336 337 335 336 336 336 337 336 335 335 335 335 334 334 335 331 329 326 325 327 329 329 326 325 325 326 327 325 324 323 320 318 318 319 320 318 314 311 310 308 306 305 305 305 304 305 305 306 307 309 311 314 315 316 317 318 319 319
322 324 326 327 330 326 322 319 319 321 317 316 316 316 317 316 316 315 316 317 316 316 316 317 316 319 321 321 327 328 324 320 319 316 319 324 327 331 334 336 336 334 334 335 335 336 336 335 335 335 335 335 334 335 333 331 329 325 325 327 328 327 325 325 326 326 325 323 323 321 320 319 319 320 320 315 312 311 309 307 305 304 304 305 306 307 308 310 312 314 316 317 317 318 319 319 318
320 322 325 327 327 323 323 322 322 324 318 316 317 316 317 315 316 316 316 318 317 316 316 316 316 318 319 321 325 324 320 320 320 317 320 323 323 328 332 334 336 335 334 333 335 335 336 335 335 335 335 335 335 335 335 332 331 327 324 326 328 327 326 326 326 326 325 324 323 322 322 320 320 320 321 318 314 312 310 309 307 306 307 308 309 310 311 313 315 317 318 319 319 319 320 319 317
318 322 328 326 324 323 323 322 322 323 316 315 316 316 317 315 316 316 316 317 317 316 316 315 315 317 318 320 319 317 318 319 318 316 320 321 321 324 328 333 334 334 334 334 335 334 336 336 335 335 335 335 335 335 335 333 332 329 325 325 326 327 326 326 326 325 326 325 325 323 323 323 322 320 321 320 316 314 313 312 311 311 311 312 313 313 314 315 317 318 319 320 320 320 320 318 315
317 324 330 324 323 324 320 321 323 322 317 315 315 315 316 316 315 316 316 316 316 316 316 315 315 317 318 318 316 316 319 318 315 315 317 318 318 319 323 329 330 330 332 333 335 335 335 335 335 336 335 335 335 335 335 335 334 330 328 326 325 326 326 326 326 326 326 327 327 325 324 325 324 321 321 321 319 317 316 316 316 316 316 316 316 316 317 317 318 319 319 320 320 321 320 318 315
318 326 328 323 325 322 317 320 322 320 317 315 314 316 316 316 315 315 316 315 316 316 316 316 315 316 316 315 315 318 319 317 315 315 315 316 316 316 317 322 323 324 325 327 333 335 334 334 335 335 335 335 335 336 335 336 335 332 330 328 327 326 326 327 327 327 327 327 327 327 326 326 326 322 321 322 321 319 318 319 319 319 319 318 319 318 318 318 319 319 319 320 320 321 320 319 315
318 329 328 323 323 317 314 317 316 318 317 314 315 315 315 316 315 315 315 315 316 316 316 316 315 315 315 314 315 317 317 317 316 315 315 315 315 315 315 316 318 319 319 321 327 330 331 333 334 334 334 334 333 334 335 335 335 334 332 331 330 328 326 327 328 328 327 327 327 328 327 327 327 323 322 323 322 321 319 320 321 321 321 320 320 320 320 320 320 320 320 320 321 321 320 319 315
318 328 328 321 319 316 315 315 316 318 317 314 315 315 315 316 315 315 315 315 315 316 316 316 316 315 315 314 314 314 315 315 315 315 315 315 315 314 314 315 315 316 315 317 322 324 324 328 332 333 332 332 332 332 334 335 335 334 333 333 333 331 328 327 329 329 328 327 327 328 328 327 327 325 325 324 323 322 321 320 321 322 322 322 322 322 322 321 321 321 321 320 320 320 320 318 314
317 323 325 319 316 317 316 315 316 317 316 315 315 315 316 315 315 315 314 315 315 315 316 316 316 315 315 315 314 314 314 314 314 314 315 315 315 315 315 315 314 315 314 315 318 319 319 321 326 330 330 330 329 330 332 334 335 334 333 333 333 333 331 329 329 329 328 328 328 329 328 328 327 327 327 326 325 324 323 321 321 322 322 323 323 323 323 323 323 323 322 321 320 320 319 317 313
317 317 318 316 315 318 316 315 316 316 316 316 315 315 316 315 316 316 314 317 317 315 316 316 316 316 316 315 315 314 314 314 314 314 314 314 314 314 314 315 315 315 315 315 315 315 316 317 321 325 327 327 327 328 329 331 333 333 332 332 333 333 333 331 331 330 330 329 329 329 328 328 328 328 328 328 327 326 324 323 322 321 322 323 324 324 324 324 324 323 323 321 320 319 318 316 312
318 315 314 316 316 317 315 315 316 316 316 315 315 316 316 316 316 316 315 316 317 316 316 316 316 317 316 316 315 315 315 314 314 314 314 314 314 314 314 314 315 315 315 315 314 314 314 315 318 321 324 326 328 329 329 328 328 331 332 331 332 333 332 332 332 331 331 330 330 330 329 329 329 328 328 328 328 328 326 324 323 322 322 323 323 324 324 324 323 323 323 322 321 319 318 315 311
319 317 314 315 315 315 315 315 316 316 316 315 316 316 316 316 316 316 316 315 316 317 316 316 316 317 317 317 316 315 315 315 314 314 314 314 314 314 314 314 315 316 315 314 314 314 314 314 316 317 320 325 328 328 328 327 326 329 331 331 332 332 332 332 333 332 331 331 331 331 330 329 329 329 329 329 328 328 328 326 324 323 323 323 323 324 324 324 323 323 323 322 321 319 317 314 310
318 317 314 314 314 314 315 315 315 316 316 315 316 316 315 316 316 316 316 316 316 316 316 316 316 316 316 316 316 315 315 314 314 314 314 313 314 314 315 315 316 316 315 314 314 315 315 315 315 315 316 321 327 326 325 326 325 327 329 330 332 332 333 333 333 332 331 332 332 331 331 330 329 329 329 329 328 327 327 327 326 324 323 323 323 324 323 324 324 323 322 322 322 319 315 312 310
316 316 314 314 313 314 314 314 315 315 315 315 316 315 315 315 316 316 316 316 316 316 316 316 316 315 316 315 315 315 314 314 314 314 314 313 313 314 315 316 315 315 315 315 315 315 315 315 314 314 315 318 322 323 323 325 326 327 327 328 332 333 332 333 333 332 332 332 332 331 331 331 330 330 329 329 328 327 326 328 328 326 325 323 323 323 324 323 323 323 321 322 321 317 312 310 310
315 315 314 314 313 314 315 315 315 315 315 315 316 316 315 315 315 317 316 316 316 316 316 315 316 315 315 315 315 315 315 315 314 314 314 313 313 313 315 316 315 315 316 316 316 315 315 314 314 313 314 315 318 320 322 325 327 328 326 325 329 332 332 332 331 333 333 332 332 332 332 331 331 330 330 330 328 327 326 327 328 327 326 324 323 323 323 323 322 322 321 322 321 316 312 310 310
315 314 315 314 314 315 314 315 314 315 315 314 316 315 315 315 316 317 316 317 317 315 316 316 315 316 315 315 315 315 315 315 315 314 314 314 314 313 314 314 315 315 316 316 316 316 315 314 314 313 314 314 315 317 320 323 326 327 325 323 326 329 330 329 329 331 333 332 331 332 332 332 331 331 330 329 327 326 326 327 327 327 326 325 324 323 323 323 322 321 321 320 319 316 313 310 308
315 316 318 314 314 316 314 314 314 315 316 316 315 315 317 317 317 318 316 317 317 315 316 316 316 316 315 315 315 315 315 315 315 315 315 315 314 314 314 314 315 315 315 317 317 316 315 314 313 313 313 313 314 314 317 320 324 324 321 320 323 325 325 326 328 330 331 333 331 331 331 332 331 330 329 328 327 326 326 327 327 326 326 326 325 324 323 322 321 321 321 319 317 314 311 309 306
316 316 318 317 315 317 315 314 315 315 316 316 314 316 325 323 316 316 316 316 317 316 316 316 316 316 316 316 316 316 316 315 316 316 316 316 315 315 314 315 315 315 315 316 316 315 314 314 313 313 313 313 313 313 314 317 320 321 319 318 319 321 322 324 329 330 329 330 331 331 330 331 331 329 328 328 328 327 327 328 327 326 327 326 325 325 323 322 321 321 320 319 316 310 308 307 305
317 315 318 322 318 317 317 314 315 316 315 316 315 317 326 324 316 316 316 316 317 317 317 316 317 317 316 317 316 316 316 316 316 316 316 316 316 315 315 315 315 315 315 315 315 314 314 314 313 313 313 313 314 314 314 315 317 317 317 316 315 317 318 321 326 330 330 330 330 330 329 330 331 330 330 329 328 328 328 329 327 326 327 326 325 325 323 322 321 321 320 318 313 306 305 305 304
319 318 317 320 319 319 319 315 314 317 316 315 315 318 324 321 317 316 317 317 317 317 317 316 317 317 317 317 317 317 317 317 316 316 316 316 316 316 315 315 315 315 315 315 314 314 314 313 313 313 312 313 314 314 314 314 314 315 314 314 313 313 314 316 319 324 329 331 331 330 328 329 331 330 330 330 329 327 327 328 327 326 327 326 325 323 323 322 321 321 320 316 310 304 304 305 303
320 322 320 320 321 320 319 316 314 316 316 315 314 318 323 320 316 317 317 317 317 317 317 317 317 317 317 317 317 318 317 317 317 317 317 316 316 316 316 316 315 315 314 314 314 314 314 313 313 313 312 313 313 314 314 314 313 313 313 313 313 313 313 313 314 317 322 326 329 331 330 331 332 330 330 330 329 328 326 327 327 326 327 327 325 323 322 322 321 321 319 312 307 305 304 306 304
320 320 320 324 324 320 320 318 315 314 316 317 316 317 322 320 315 316 317 317 317 317 317 317 317 317 317 317 318 318 318 318 317 317 317 317 317 316 316 316 315 316 315 315 315 314 314 314 314 313 313 313 312 313 314 314 314 314 313 313 312 313 313 313 313 315 316 318 324 331 332 332 332 330 330 329 328 327 326 326 326 325 327 327 326 324 322 321 321 321 320 311 305 305 305 305 304
324 319 319 323 321 319 322 319 316 316 316 317 317 317 321 320 315 314 316 316 316 317 317 317 317 317 317 317 317 318 318 318 317 317 317 317 317 317 316 316 316 316 316 315 315 314 314 314 314 313 313 313 312 313 313 313 313 313 313 312 312 313 313 313 313 314 315 315 320 327 330 330 330 330 330 329 326 325 324 326 326 325 326 327 326 324 322 322 321 320 320 314 306 303 304 304 304
327 324 326 327 320 316 319 318 314 315 317 317 318 318 319 319 316 313 314 316 315 316 317 317 317 317 317 317 317 318 317 318 317 316 317 317 317 317 317 316 316 316 316 316 315 315 315 314 314 314 313 313 313 313 313 312 312 312 312 312 313 313 313 313 313 313 313 313 317 323 327 327 327 329 330 329 325 324 325 326 326 326 326 326 326 325 323 322 322 320 319 316 308 303 302 303 303
323 324 326 325 322 317 316 318 314 313 316 319 320 319 318 318 317 313 313 315 314 314 315 316 317 317 317 317 317 318 317 317 317 317 317 317 317 317 317 316 316 316 316 316 316 315 315 315 314 314 314 314 314 313 313 312 312 312 312 312 312 313 313 313 313 313 313 313 314 318 323 326 327 328 328 327 325 325 327 326 326 326 326 326 325 325 323 322 321 320 319 315 309 306 303 302 302
322 324 324 321 322 320 316 317 316 312 314 319 319 317 317 316 315 312 312 313 313 313 314 315 317 317 317 317 317 317 317 317 317 317 317 317 317 317 317 317 316 316 316 316 316 316 315 315 315 315 314 314 314 314 314 313 312 312 311 312 312 312 313 312 313 313 313 313 312 314 318 321 324 325 325 324 325 327 327 326 326 326 325 325 324 323 322 321 319 318 319 314 308 307 305 303 302
325 325 325 321 319 318 316 317 318 315 314 320 322 319 318 316 315 312 310 312 314 314 315 315 316 316 316 316 317 317 317 318 317 317 317 317 317 317 317 317 316 316 315 315 316 315 315 315 315 315 315 315 315 314 314 313 312 312 311 311 312 312 312 312 312 313 313 313 314 316 318 319 321 324 324 325 327 328 326 325 324 324 324 324 324 323 320 320 319 318 318 316 311 306 303 302 302
326 326 325 323 319 318 317 317 318 316 314 319 322 321 319 317 317 318 314 312 314 315 315 315 315 316 315 316 316 316 317 317 318 317 317 317 317 317 317 317 317 316 315 315 315 315 315 316 315 315 315 315 315 314 314 313 312 312 311 311 311 312 312 312 313 313 314 315 316 320 322 322 323 324 323 325 328 328 326 324 323 323 325 325 324 322 320 319 320 319 317 316 314 309 303 302 302
322 326 325 322 321 319 318 319 319 319 319 320 320 320 327 329 324 328 324 315 314 316 316 316 316 316 315 315 316 316 317 317 317 317 317 317 317 317 317 317 317 316 316 316 315 315 315 315 315 315 315 315 315 314 314 313 313 312 312 311 311 312 312 312 312 313 314 316 318 321 324 324 324 324 324 326 328 327 326 324 323 325 325 324 322 321 321 320 320 320 318 316 314 310 305 302 301
316 321 323 321 323 322 322 324 321 321 322 320 317 318 333 339 327 325 325 317 315 316 315 317 318 317 316 316 316 316 317 317 318 318 318 318 317 318 318 317 317 316 316 316 316 315 315 315 315 315 314 314 314 314 314 313 313 313 312 312 312 312 312 312 312 313 313 316 319 321 324 325 324 324 323 325 326 326 326 325 324 324 324 323 322 321 321 321 320 319 319 317 313 307 303 301 301
314 318 322 325 330 327 327 327 319 318 319 319 318 317 325 328 320 318 319 315 315 313 312 315 316 317 317 317 318 317 318 318 318 318 318 318 318 318 318 318 318 317 316 316 315 315 315 315 314 314 314 314 314 313 313 313 312 312 312 311 311 311 312 312 312 313 313 316 319 321 323 324 323 323 323 325 326 326 326 325 324 324 324 323 322 321 320 320 320 319 318 316 311 305 302 302 302
316 320 323 328 331 326 328 329 322 321 321 323 326 321 320 322 320 319 317 315 316 315 315 315 313 315 317 317 318 317 318 318 318 318 318 318 319 319 318 318 317 317 316 316 315 315 315 314 314 314 314 313 314 313 313 313 312 312 311 311 311 311 311 312 312 313 314 316 318 321 323 323 322 323 324 325 325 325 324 324 323 323 323 322 321 321 320 320 319 318 317 315 310 304 302 302 302
319 321 324 328 329 327 333 333 327 323 319 324 330 321 318 325 329 324 318 317 319 320 320 316 313 315 316 317 319 318 319 319 318 318 318 318 318 318 318 317 317 316 316 315 315 315 315 315 314 314 314 314 314 314 313 313 312 312 311 311 310 311 311 311 312 315 317 317 317 319 321 322 323 324 324 324 325 325 323 322 322 322 322 321 321 320 319 318 317 317 317 314 309 304 302 301 301
317 319 325 329 330 330 331 330 326 320 315 324 332 323 316 321 327 324 316 318 323 322 321 316 313 316 318 318 319 319 319 318 318 318 317 317 317 317 317 316 316 315 315 315 315 315 315 315 315 315 315 315 315 314 314 313 312 312 311 311 310 311 311 311 313 316 319 320 319 319 321 323 324 323 323 323 324 324 322 321 321 321 321 320 319 319 318 317 317 316 316 313 307 303 302 301 300
316 323 330 328 329 332 332 332 327 316 318 328 329 323 316 316 325 328 320 323 324 318 319 321 318 318 319 319 319 319 318 317 317 317 317 317 316 316 316 315 315 315 316 316 315 316 316 316 316 316 316 316 315 315 314 313 313 312 311 311 310 310 311 312 313 316 319 320 321 322 323 324 324 323 323 323 324 324 321 320 320 319 319 319 318 317 317 317 317 316 315 312 307 303 302 301 300
320 329 329 319 324 333 331 332 326 315 322 329 325 322 317 315 325 327 324 326 323 317 322 329 324 318 318 319 318 318 317 317 317 317 317 316 315 316 316 315 316 316 316 317 317 316 316 316 316 316 316 316 316 315 315 314 313 313 312 311 310 310 312 312 313 315 317 318 320 322 324 324 324 323 323 323 323 323 321 319 319 318 318 318 318 317 317 317 317 315 313 311 307 303 301 301 300
325 325 322 314 318 326 327 329 325 321 324 322 322 322 316 316 322 321 322 325 321 318 321 325 323 318 319 319 317 317 317 317 317 317 317 316 316 317 317 317 317 317 317 316 317 316 316 316 316 316 316 316 315 315 315 315 314 314 313 311 310 311 312 312 313 315 317 318 319 321 323 324 323 323 323 323 323 323 321 320 319 319 318 318 318 317 316 316 317 313 310 309 307 303 301 301 300
323 321 321 318 318 320 323 325 323 324 325 319 318 320 318 321 322 319 321 319 316 316 316 320 320 318 319 318 318 318 317 317 317 317 317 317 317 317 317 317 317 317 317 316 317 316 316 317 316 316 316 315 315 315 315 315 315 314 313 311 310 311 312 312 312 315 317 318 319 321 323 324 323 323 322 322 322 322 321 320 320 319 318 318 317 317 317 316 315 311 307 307 306 303 301 301 300
321 323 321 320 323 326 325 325 324 325 326 321 316 318 323 324 319 318 317 313 314 316 316 319 318 318 319 318 318 318 317 317 316 316 317 317 317 317 317 317 317 317 317 316 317 317 316 316 316 316 315 315 315 315 314 314 314 314 313 312 311 310 311 311 312 314 317 318 319 321 322 322 323 323 322 322 322 321 321 320 319 319 318 318 317 317 316 316 314 309 306 305 305 303 302 301 300
319 321 320 319 325 331 325 321 324 324 321 320 318 321 326 323 318 317 315 313 315 315 315 318 316 317 318 318 318 318 317 317 316 316 317 317 317 317 317 317 317 317 317 317 317 317 317 316 316 316 315 315 315 314 314 314 314 314 313 313 311 311 311 310 311 314 316 318 318 319 320 321 321 322 322 322 321 321 320 320 319 319 318 318 317 317 316 316 314 310 305 306 306 304 302 300 299
318 317 323 326 325 330 325 314 315 316 315 317 319 321 321 317 316 319 316 314 314 313 313 315 316 317 316 317 317 317 317 316 316 316 316 316 317 316 317 317 317 317 317 317 317 316 317 316 315 315 315 315 315 314 314 314 314 314 314 313 312 311 310 310 311 313 315 317 317 317 318 319 320 321 321 321 321 321 320 319 319 319 318 317 317 317 316 315 315 311 307 306 305 303 302 300 299
321 319 324 324 318 324 328 319 316 316 316 319 318 316 316 313 316 322 320 316 315 315 314 312 315 317 315 317 317 316 317 315 315 316 316 317 316 316 317 316 316 317 316 316 316 316 316 316 315 315 315 315 315 315 314 314 314 314 314 313 312 312 310 310 311 312 313 314 314 315 317 319 320 321 321 321 321 320 319 319 318 318 317 316 315 316 315 315 314 312 309 307 305 303 301 300 299
319 319 318 320 321 323 324 320 319 317 316 321 320 314 314 314 315 319 319 317 317 318 318 316 314 314 315 317 316 316 316 315 315 316 316 317 317 316 316 316 316 316 315 316 315 316 316 316 316 315 315 315 315 315 315 314 314 314 314 314 312 312 311 310 310 312 313 313 315 317 318 320 321 321 321 321 321 320 319 318 318 317 316 315 314 314 314 313 313 311 308 307 305 303 302 300 299
315 316 313 319 325 325 323 319 319 320 316 318 320 316 315 316 318 317 315 317 318 318 321 319 312 312 316 316 316 316 316 315 316 316 317 318 317 317 317 316 316 315 315 315 315 316 316 316 316 316 315 315 315 315 315 315 314 314 314 314 313 312 311 310 310 312 313 314 316 318 319 320 320 320 321 321 320 320 319 318 318 317 316 315 314 313 312 312 311 308 306 304 304 303 302 300 299
317 318 317 319 318 319 322 320 320 324 321 318 319 316 316 319 320 318 317 320 320 318 320 318 311 313 316 315 315 316 316 317 318 317 318 318 317 318 317 316 316 315 315 315 315 316 316 316 316 316 316 316 316 316 315 315 315 314 314 314 313 312 311 310 310 312 314 314 315 319 320 319 319 319 320 320 320 319 318 317 317 316 316 315 314 314 312 309 308 305 303 303 303 302 301 300 299
317 317 319 318 317 319 320 318 318 321 322 323 321 315 315 317 317 317 319 322 320 314 314 315 313 314 316 316 316 317 317 318 318 318 318 317 317 317 317 317 316 316 316 315 315 316 316 316 316 316 317 316 316 316 316 315 315 315 314 313 313 312 311 311 310 311 313 313 314 317 319 318 318 318 319 319 319 319 317 316 316 316 316 315 315 314 312 307 304 303 302 302 302 301 301 300 299
Wind_Speed
4 5 6 6 6 4 4 3 1 2 3 3 1 2 1 1 3 4 4 3 4 4 9 11 11 11 8 11 14 13 11 2 3 2 5 12 19 16 13 15 14 14 13 13 13 12 12 12 11 12 12 11 10 8 9 9 9 10 11 11 12 12 13 14 14 15 15 16 17 16 16 14 14 14 13 13 14 15 16 18 20 20 18 16 12 14 18 18 19 21 22 24 25 26 26 26 26
5 6 5 5 6 3 3 2 1 2 4 3 1 3 2 2 5 5 4 4 5 6 11 13 15 16 16 16 12 10 12 8 6 11 17 20 21 16 13 14 15 14 13 13 13 12 11 11 12 12 12 11 10 9 9 9 9 9 10 10 11 12 12 13 14 14 15 17 17 17 16 15 14 13 13 13 14 15 17 18 20 19 17 14 10 14 19 19 21 21 23 25 26 26 26 27 26
5 6 6 5 3 2 2 1 2 2 4 3 2 1 3 6 5 4 7 9 11 12 11 10 13 14 13 11 9 6 5 8 14 21 24 23 22 19 14 14 15 14 13 14 13 12 11 11 12 12 12 11 10 9 8 8 8 8 9 10 10 10 11 12 13 14 15 17 17 17 17 15 14 13 13 13 14 15 17 19 21 19 18 16 13 15 19 20 21 22 23 25 26 26 25 25 24
6 7 6 4 1 2 1 1 2 4 4 4 2 2 4 7 6 5 9 12 11 10 7 6 8 10 13 12 9 10 7 8 15 21 24 22 21 19 16 14 14 14 13 13 13 12 12 11 11 12 11 11 10 8 8 8 7 7 8 8 9 10 10 11 12 14 15 17 17 17 17 16 15 13 12 13 14 16 18 20 21 19 18 18 16 15 19 20 21 21 23 24 25 24 24 23 23
7 7 5 3 1 1 1 1 1 5 3 4 3 1 5 8 7 6 9 10 9 8 6 4 3 7 14 11 8 8 10 12 14 18 22 21 19 19 16 13 13 13 13 12 13 13 12 12 11 11 11 11 10 8 8 7 6 6 6 7 8 9 9 10 11 13 15 16 17 17 17 17 15 13 12 12 12 16 19 19 19 18 17 17 14 13 17 20 20 21 23 23 24 23 23 24 24
8 7 5 5 3 2 1 2 3 4 1 4 5 4 6 8 10 11 10 10 9 8 7 5 6 9 10 10 10 12 12 10 12 15 20 22 21 19 17 14 12 12 13 13 12 12 12 12 11 10 11 11 10 9 8 7 7 6 6 6 7 7 8 9 10 12 14 15 16 16 16 16 16 13 12 11 11 16 19 19 18 16 16 16 12 10 16 19 19 21 22 23 24 23 22 23 23
8 5 3 3 3 1 2 4 2 3 2 2 7 6 6 10 15 14 10 8 6 6 7 6 10 10 8 9 11 11 9 7 9 11 16 21 21 19 18 14 12 12 12 12 12 12 11 11 11 10 10 10 11 10 9 8 7 7 6 5 6 6 7 8 9 11 12 13 14 14 15 16 16 14 12 11 11 14 17 17 17 15 14 15 12 11 16 18 18 20 22 23 24 23 22 22 22
6 3 2 1 1 2 4 3 1 2 2 3 8 10 11 15 17 13 6 5 3 3 6 7 10 8 4 9 8 7 9 7 7 9 13 17 21 20 19 15 13 13 12 12 11 12 11 10 11 10 9 10 10 10 10 9 8 7 6 5 5 5 5 6 8 10 11 12 13 14 14 15 15 14 13 11 10 12 14 15 15 15 13 13 11 13 17 18 19 20 22 23 24 24 23 22 22
5 4 2 1 1 3 3 3 2 1 2 4 8 13 19 18 16 12 5 5 6 5 6 6 7 6 5 8 10 9 10 9 9 11 13 16 22 21 19 16 13 13 12 12 11 11 11 10 11 11 10 10 10 10 10 10 9 8 7 5 4 4 4 5 7 9 11 11 12 13 13 14 15 14 13 11 11 11 11 12 13 13 13 12 12 15 18 18 19 20 22 22 23 24 23 22 21
4 4 2 1 2 3 3 2 2 1 2 4 7 15 20 18 17 14 9 7 9 8 6 5 7 9 9 9 9 8 9 10 12 14 16 20 24 21 18 15 12 12 13 13 12 11 11 11 11 11 10 9 9 9 9 10 9 8 7 6 4 4 4 5 7 9 10 11 12 12 12 13 14 14 13 12 12 10 9 9 11 11 12 13 15 17 18 18 19 20 21 21 22 22 21 20 18
2 3 2 2 3 3 2 2 3 2 3 3 5 12 15 15 14 12 12 10 10 10 7 5 9 14 12 7 7 7 9 11 13 17 21 24 23 20 18 15 12 12 12 13 12 12 12 12 11 10 10 9 8 8 8 9 9 9 7 6 4 3 3 4 6 7 9 10 11 12 11 12 13 13 13 13 13 12 10 11 12 13 14 15 16 17 18 18 19 20 20 20 21 20 19 17 16
2 2 2 2 0 3 4 5 5 3 4 3 2 7 9 9 9 9 12 10 10 9 7 4 6 13 8 4 8 8 10 11 13 18 22 24 22 19 18 17 15 13 13 13 12 12 12 13 12 11 10 9 8 7 7 8 9 9 8 7 5 3 2 3 4 6 7 8 10 11 11 11 12 13 13 12 13 13 12 12 14 15 16 16 17 17 18 18 18 19 19 19 20 19 17 16 16
2 2 4 1 2 4 5 5 5 4 3 3 4 7 8 8 7 10 14 12 11 9 6 3 4 9 6 4 9 9 12 12 14 18 22 24 22 21 20 19 17 16 15 14 13 13 13 14 13 11 11 10 9 8 8 7 7 9 9 7 5 2 1 1 3 4 6 7 8 9 9 10 11 12 12 12 13 13 12 13 14 15 16 16 17 17 17 17 18 17 17 18 18 17 16 15 15
3 2 3 1 1 4 5 4 4 4 2 4 7 11 10 7 4 8 14 9 7 9 8 5 5 6 6 6 9 14 14 13 15 17 22 23 23 22 21 20 18 17 16 16 15 14 14 14 13 12 12 11 10 9 9 8 7 9 9 7 5 3 2 1 1 2 4 5 6 7 8 8 9 10 11 12 12 13 13 13 14 15 16 16 17 17 17 17 17 16 16 16 16 16 15 14 14
4 4 2 1 3 2 3 3 4 5 2 4 11 15 10 7 5 8 12 8 5 11 10 6 5 4 6 7 8 17 16 15 16 17 22 22 21 22 21 21 18 17 17 17 16 15 15 15 14 13 13 12 11 11 10 9 8 9 9 8 6 4 3 2 2 1 2 3 4 5 6 7 7 8 10 11 12 13 14 14 14 15 16 16 17 17 16 16 16 15 15 14 14 14 14 13 13
4 4 3 2 2 1 2 3 5 5 2 5 13 16 8 5 6 8 9 9 10 12 8 5 5 3 6 8 7 12 15 16 17 17 21 21 20 21 21 22 20 19 18 18 17 16 16 15 14 13 14 13 12 12 11 11 10 9 10 9 8 6 4 4 3 2 1 1 2 3 3 4 5 6 8 9 11 13 14 15 15 15 16 16 16 16 16 16 15 14 13 13 13 13 13 13 12
3 2 4 2 1 1 1 2 4 5 3 6 13 14 7 3 5 8 8 9 12 11 7 6 6 6 6 6 7 10 13 16 16 17 20 19 19 20 22 23 22 21 20 19 18 16 16 15 15 14 14 14 14 14 12 12 12 11 11 10 10 8 6 5 4 4 2 1 0 0 1 3 3 5 6 7 9 12 13 14 14 14 15 15 15 15 15 15 14 13 12 11 11 11 11 12 11
1 2 4 1 1 0 2 4 6 7 5 7 14 13 9 6 6 9 8 8 11 9 7 7 7 7 6 7 9 10 12 15 15 16 17 18 18 18 19 21 20 21 20 19 19 18 17 17 16 15 15 15 15 15 13 13 14 13 12 11 11 10 8 6 5 5 4 2 2 2 1 1 2 4 5 6 7 10 12 12 12 12 13 13 14 14 14 13 12 11 10 9 9 9 10 11 11
1 3 4 1 3 1 5 1 7 8 8 11 15 14 9 9 11 10 5 6 10 8 6 7 8 8 8 10 10 10 12 13 15 15 16 17 16 16 16 17 18 18 18 17 19 19 18 18 18 17 17 16 16 16 14 14 15 15 14 13 12 11 10 8 7 7 5 4 4 4 3 1 2 5 5 4 5 7 9 10 10 10 11 11 12 12 11 11 10 10 10 8 7 8 9 10 10
1 3 3 2 5 2 7 6 6 10 16 15 14 12 8 9 13 11 6 6 8 8 9 9 10 11 12 13 12 12 13 13 14 14 15 16 16 16 16 16 16 16 15 15 18 19 18 18 19 19 19 18 18 17 16 15 15 15 14 14 13 12 11 10 9 8 7 7 6 6 5 3 4 6 5 4 4 4 6 9 10 9 10 10 10 10 10 10 10 9 9 8 7 7 8 8 9
1 3 4 3 4 3 4 6 7 13 21 17 14 11 7 10 13 11 8 5 4 11 15 13 12 15 16 16 15 14 13 13 14 14 14 15 16 16 15 15 14 15 14 14 17 18 17 16 19 20 20 20 19 18 17 16 15 15 14 13 13 12 12 12 11 10 9 9 9 9 7 5 6 7 5 4 4 4 5 7 9 9 9 9 9 9 10 10 10 9 9 8 7 7 7 7 8
3 2 3 0 3 3 0 5 9 13 19 16 13 10 9 11 10 11 10 6 4 12 17 15 13 13 14 16 17 16 15 14 14 14 14 14 15 16 16 15 15 16 17 17 16 16 16 15 18 20 20 20 18 17 18 18 17 16 15 13 13 13 13 12 12 11 10 10 11 10 9 7 7 7 6 5 4 4 5 7 8 9 9 8 8 9 9 10 9 9 9 8 8 7 6 7 7
3 0 3 5 4 5 3 4 9 12 17 13 10 8 11 11 7 11 12 9 6 6 9 11 12 12 12 13 16 17 16 16 15 14 14 14 14 15 16 17 17 18 18 17 16 16 15 15 17 19 20 19 18 18 19 20 19 18 16 14 14 15 13 13 13 12 12 12 13 11 10 9 8 8 7 6 5 5 6 7 9 10 9 9 8 8 9 10 9 9 9 8 8 7 7 7 8
5 2 2 5 6 7 6 6 9 11 14 10 8 8 9 8 5 7 11 12 8 5 4 4 7 10 12 14 15 15 14 14 14 14 13 13 13 13 14 16 17 18 18 18 17 16 15 14 17 19 19 19 19 21 21 21 20 20 19 17 16 16 15 14 13 13 13 14 14 13 12 11 11 10 9 8 7 6 7 8 10 11 10 9 10 9 9 9 10 9 9 8 8 8 8 8 9
4 3 3 5 5 6 6 7 9 9 10 8 8 6 5 7 5 5 11 13 11 8 7 6 5 9 12 13 13 13 13 13 13 14 15 14 14 14 15 16 17 18 19 18 17 16 15 15 16 18 19 19 20 21 22 22 20 20 20 19 18 17 16 15 14 14 14 15 16 15 15 14 13 12 11 11 10 8 8 9 11 10 10 11 12 12 10 10 10 9 8 8 8 9 10 10 11
2 7 7 7 6 7 7 6 7 7 7 6 5 2 2 5 3 6 12 14 15 12 10 10 9 10 12 12 12 12 13 13 14 15 15 15 16 17 18 18 19 19 19 18 18 17 17 16 16 16 17 19 20 21 22 22 21 20 20 21 21 19 17 16 16 16 15 16 17 19 19 17 15 14 13 13 12 11 9 10 11 9 9 12 14 13 12 11 10 9 9 9 8 10 11 12 11
9 13 11 10 9 7 6 6 6 6 5 5 3 0 1 3 2 6 11 10 15 17 13 13 13 13 13 13 13 14 14 14 14 14 15 17 18 19 20 21 21 20 19 19 19 18 18 17 16 16 17 19 20 22 23 23 22 21 20 21 24 23 21 19 19 19 18 18 17 19 21 19 17 15 15 16 15 14 13 13 13 10 9 12 14 15 14 13 11 10 10 10 9 10 11 12 12
17 18 10 7 7 5 5 7 7 4 4 3 2 1 3 1 2 9 13 8 11 17 17 16 15 14 14 14 15 16 17 16 15 17 18 20 19 19 21 21 21 21 20 20 19 19 19 18 17 17 18 19 20 22 24 24 24 23 22 22 24 25 24 23 22 21 21 20 18 18 20 21 20 18 17 18 18 17 16 15 15 12 9 11 14 15 16 13 11 11 12 12 11 12 11 12 13
17 13 7 2 3 3 4 6 6 4 3 2 2 2 4 2 7 13 11 8 10 15 17 17 17 16 15 16 17 18 18 18 18 20 20 20 19 19 19 20 21 21 21 21 21 21 20 19 18 18 19 19 20 22 23 25 25 24 23 23 24 24 25 24 22 22 23 23 21 20 21 22 21 20 20 21 20 18 17 17 16 12 10 12 13 14 16 14 13 15 15 15 14 14 14 14 15
10 5 5 3 5 3 5 4 4 4 2 2 3 1 5 5 13 15 9 9 12 15 17 18 17 16 16 16 17 18 18 19 20 20 19 19 19 19 19 20 21 21 21 22 23 23 22 21 19 19 19 20 20 21 22 24 25 25 24 24 24 25 24 24 25 25 25 26 25 24 23 22 22 22 23 23 22 18 18 19 16 12 12 14 14 14 16 15 15 16 17 17 15 16 17 16 16
4 2 3 3 3 3 5 2 5 4 2 2 4 1 6 7 12 11 9 12 13 16 16 16 16 16 16 16 17 18 19 20 20 19 19 19 19 19 20 20 22 22 23 23 24 24 23 22 20 20 19 20 21 21 22 23 24 25 25 25 25 25 25 25 28 28 28 28 28 27 24 22 22 23 24 25 23 17 18 21 15 12 14 17 18 18 17 16 15 16 16 17 18 20 19 17 17
2 3 1 2 4 3 6 1 6 5 2 2 4 1 6 8 8 3 9 12 13 16 15 16 17 17 18 18 18 19 19 20 21 20 21 21 20 19 20 21 22 23 24 24 24 24 24 23 21 20 20 21 22 22 22 23 24 25 25 25 24 25 25 25 27 29 32 32 30 29 26 25 25 25 25 25 23 17 17 21 18 15 17 19 21 20 19 18 16 17 17 17 19 22 21 18 18
3 3 2 2 4 2 4 2 2 4 2 1 1 2 3 4 3 4 9 12 13 15 16 17 18 19 19 20 20 20 20 20 21 22 22 23 22 21 20 21 22 23 24 24 24 24 23 23 21 21 21 21 22 22 23 24 24 25 25 25 25 25 26 25 25 27 31 33 31 30 28 28 28 26 25 24 22 19 18 21 22 19 20 20 21 21 22 20 17 17 19 19 20 22 22 20 20
3 1 1 3 4 4 2 3 3 3 4 1 1 2 5 6 6 6 8 11 13 16 18 18 18 19 21 22 23 23 22 22 23 22 21 21 21 20 21 21 22 23 24 24 24 23 23 22 21 21 21 21 22 23 24 25 25 26 27 27 27 27 26 26 25 25 27 29 31 32 30 30 28 26 26 24 21 22 21 22 24 23 22 22 22 23 24 22 19 18 19 22 22 21 21 21 20
4 3 1 3 2 4 3 2 3 3 3 2 1 3 9 11 11 13 14 14 16 19 21 21 21 21 22 24 26 26 26 26 26 24 21 21 20 20 20 21 21 23 23 24 23 23 22 22 22 21 22 22 23 23 25 26 27 28 28 28 28 28 28 27 26 27 26 27 32 34 33 32 31 28 26 24 23 24 24 24 25 25 25 25 25 26 27 25 23 22 21 23 24 22 21 20 21
8 7 5 4 3 1 3 2 2 3 3 4 5 6 9 10 11 14 19 19 20 24 25 26 26 25 25 26 27 28 28 29 28 24 22 21 21 20 20 21 21 23 23 23 23 23 23 23 23 23 23 23 23 24 25 27 28 29 29 29 29 29 28 28 27 27 26 27 31 35 35 34 33 31 28 26 24 24 25 26 27 27 26 26 27 29 29 27 25 24 23 22 24 25 23 21 21
7 5 5 4 5 0 2 1 4 1 3 5 7 6 8 10 10 14 21 20 17 22 25 27 29 29 29 28 29 29 30 30 27 24 24 22 21 21 21 22 23 24 24 24 24 23 23 23 23 23 23 24 24 24 25 26 27 28 29 29 30 29 28 28 28 28 28 27 29 32 36 35 34 33 31 28 26 25 27 28 28 27 27 29 30 30 31 30 28 27 26 24 24 24 24 24 23
5 5 5 3 4 2 2 1 4 1 2 4 3 4 9 10 9 14 19 15 14 21 23 27 32 32 31 30 30 30 30 30 27 25 25 23 23 22 22 24 24 25 25 25 25 24 24 23 23 24 24 25 24 24 25 25 26 26 28 28 28 28 28 28 28 28 28 27 26 27 31 35 35 33 29 28 28 27 28 28 28 28 29 32 32 32 33 32 32 30 27 25 25 23 23 26 24
6 4 5 3 1 2 1 2 3 1 2 4 4 5 10 12 9 14 18 16 21 26 25 28 31 30 31 31 30 30 29 29 27 26 25 24 24 23 24 25 25 25 25 26 25 25 25 24 23 24 25 26 25 25 25 25 25 25 26 27 27 27 27 28 28 28 27 25 23 22 23 27 29 28 25 25 26 27 27 27 28 29 30 32 34 35 34 32 30 28 27 26 25 25 25 26 25
4 4 5 1 1 2 0 3 3 0 1 2 3 4 9 10 7 10 17 20 25 29 26 29 31 31 32 30 28 28 27 28 27 27 25 24 25 25 25 25 24 26 26 27 27 27 27 26 25 25 26 27 27 26 26 26 25 24 25 26 27 27 26 27 27 27 25 23 22 21 21 23 24 25 24 25 27 27 26 27 27 28 30 32 34 35 32 31 29 27 28 27 25 26 29 28 27
2 3 5 3 2 4 2 2 2 2 3 2 3 5 6 6 6 7 9 9 14 20 19 24 28 29 30 27 25 26 24 23 25 26 25 25 25 25 24 24 24 25 26 27 27 27 28 28 27 26 27 28 28 28 27 27 26 25 26 27 28 28 28 28 28 27 26 25 24 23 23 23 24 25 25 26 29 28 26 26 26 27 30 32 32 31 29 29 28 26 28 29 26 26 28 29 28
2 0 3 6 7 6 3 3 5 5 5 3 3 4 6 5 6 7 6 5 8 11 10 19 24 20 21 22 22 23 21 19 20 21 23 24 24 24 23 23 24 24 24 24 25 26 27 27 27 26 27 28 29 29 28 27 26 26 27 27 28 28 29 29 28 27 27 27 27 26 26 25 25 25 24 25 27 26 25 26 27 27 28 30 31 30 29 29 27 26 28 28 27 26 27 29 29
0 3 4 6 8 7 5 5 4 2 3 4 3 2 5 7 6 9 9 9 11 11 10 20 27 19 15 18 19 20 20 19 18 19 21 23 24 24 24 23 23 22 22 22 23 23 24 24 24 25 25 26 27 28 27 27 26 26 27 27 27 27 27 27 25 25 26 27 28 28 28 26 25 25 25 26 26 25 26 27 27 27 27 28 29 30 30 29 27 26 29 29 27 28 28 27 27
2 4 5 6 7 7 5 6 4 2 2 5 4 3 3 6 6 9 10 9 11 11 10 17 25 20 13 14 15 15 16 16 18 20 21 22 22 22 22 21 21 21 20 20 20 20 20 20 20 21 21 23 24 25 25 25 25 25 25 26 27 26 26 24 23 24 25 26 28 30 29 27 24 24 26 27 27 26 27 27 26 26 27 27 28 28 28 28 28 28 30 30 28 29 29 25 24
4 4 5 6 7 7 5 6 3 1 2 5 6 1 2 6 7 6 4 4 8 11 11 13 16 14 11 13 13 11 12 13 15 18 19 19 20 19 19 18 18 18 19 18 17 16 16 16 17 18 18 19 21 22 22 23 23 24 24 26 27 26 25 24 23 23 24 24 26 29 29 27 27 26 27 26 25 26 27 27 26 26 27 28 28 27 27 28 29 30 32 32 30 29 29 24 23
4 3 6 6 5 6 5 5 3 3 2 5 6 2 2 5 7 5 0 2 7 9 8 9 9 9 9 11 10 10 11 12 13 14 16 16 16 16 16 16 16 16 16 15 14 14 14 14 14 15 16 17 18 19 20 21 21 23 24 26 27 26 26 25 24 23 24 24 25 27 28 29 30 28 27 26 26 28 28 27 27 27 27 27 27 28 28 28 30 31 32 32 30 29 29 26 24
7 6 7 7 6 5 4 3 4 3 3 6 7 5 2 4 6 4 3 4 6 5 4 5 5 7 9 10 9 10 10 10 10 12 14 15 14 14 15 15 14 13 13 12 12 12 11 11 12 12 13 15 16 17 18 19 20 22 24 25 26 26 26 27 26 26 26 27 27 28 29 31 32 29 28 28 28 29 29 28 28 28 27 27 27 29 28 28 30 32 32 32 31 29 29 28 26
7 5 5 4 4 5 5 5 4 1 5 6 6 2 3 4 6 4 5 7 6 5 4 5 6 10 12 10 9 10 10 10 9 10 12 13 12 13 13 13 12 11 10 10 10 10 10 9 10 11 12 13 14 15 16 18 19 21 23 25 26 27 27 27 27 28 28 27 28 30 32 34 34 32 31 31 31 31 31 30 29 28 28 27 27 28 29 29 31 34 34 33 32 30 30 29 28
5 5 6 4 2 3 3 3 1 2 6 5 4 1 3 6 6 6 9 9 6 5 5 8 11 13 12 11 10 9 8 8 9 9 9 9 9 9 10 11 11 10 9 8 9 9 9 9 10 10 11 11 11 12 14 16 18 20 22 24 26 27 28 28 27 27 27 27 28 30 34 36 35 33 32 33 33 33 32 32 31 30 30 28 27 28 29 31 33 35 35 34 33 32 32 31 29
5 5 5 5 3 2 2 4 1 3 5 4 3 2 3 4 4 8 11 10 8 5 4 7 10 10 9 9 8 7 7 8 8 8 7 7 7 8 9 11 11 10 8 7 8 9 9 9 9 10 10 10 10 10 12 13 16 19 21 23 26 28 28 28 28 28 28 28 28 30 33 35 33 30 29 32 33 33 33 33 32 32 30 29 28 29 30 31 33 35 36 35 34 33 33 32 31
4 5 6 5 5 5 4 3 3 4 4 3 3 1 3 2 3 6 8 8 10 7 6 7 8 7 7 6 6 8 10 9 8 8 7 7 7 8 10 11 11 10 8 7 8 9 10 10 9 9 10 9 9 9 11 12 13 17 20 22 26 28 29 28 28 28 28 29 30 29 30 31 31 29 29 31 34 34 34 33 33 32 31 30 30 30 32 32 32 35 36 35 35 34 34 33 32
2 3 6 2 4 5 3 3 5 3 1 3 2 3 5 4 5 9 9 11 10 9 10 10 9 8 6 6 9 12 11 10 11 10 9 9 10 11 12 13 13 12 11 10 9 10 10 10 9 9 9 9 8 8 10 11 11 14 19 22 25 28 29 29 28 29 29 31 32 32 30 29 29 30 31 33 34 35 35 34 33 32 31 32 32 32 34 34 33 35 36 36 36 36 35 34 33
1 3 3 5 4 7 5 2 0 3 2 4 2 5 5 3 6 8 7 9 10 10 12 13 15 12 9 12 13 13 14 15 15 14 12 12 14 14 14 14 15 16 17 15 12 11 11 10 10 10 9 8 7 7 9 9 10 13 17 21 24 27 29 29 29 30 31 33 35 35 33 31 32 32 32 34 35 36 36 35 33 32 32 32 33 35 36 35 34 34 36 36 37 37 36 35 34
5 3 5 3 1 4 4 1 2 3 3 4 2 6 5 2 5 6 5 4 3 6 10 15 19 17 15 17 18 17 19 20 19 17 14 15 16 16 15 16 18 19 20 19 16 14 13 12 11 10 9 7 6 7 8 9 9 11 15 19 23 26 28 28 29 30 31 33 34 34 33 34 35 34 33 34 36 37 36 35 32 32 33 32 33 37 38 36 35 35 36 37 37 38 37 36 35
4 4 3 3 2 1 2 2 2 2 2 5 4 5 5 4 6 4 5 5 3 5 9 11 16 18 19 21 21 20 19 19 19 17 15 15 14 14 14 15 17 19 21 21 19 17 15 13 11 10 8 7 7 8 9 9 9 10 14 17 21 24 26 28 29 30 30 31 33 33 34 35 35 34 34 35 37 37 36 35 33 33 34 34 36 38 39 38 37 37 37 38 38 39 39 38 37
2 2 1 2 3 4 3 3 3 3 3 4 3 4 4 6 6 6 8 9 7 9 9 8 13 21 24 22 19 16 14 15 16 15 14 13 10 11 13 14 16 18 20 21 20 19 17 14 12 10 8 7 8 9 9 10 9 11 13 16 20 23 26 27 28 30 31 32 32 34 35 34 34 34 34 35 38 38 36 34 34 34 35 36 38 40 40 39 39 39 39 39 40 40 40 40 38
2 2 2 1 2 2 1 1 2 4 4 3 2 5 7 6 4 8 9 9 9 10 8 8 15 21 21 18 14 11 11 12 13 12 11 9 8 12 15 16 16 17 20 21 21 21 19 16 13 10 8 9 9 9 10 10 10 12 14 16 19 22 25 27 28 30 32 33 33 34 35 35 35 34 33 34 36 37 35 34 35 35 36 37 39 40 40 41 41 41 40 40 41 41 41 41 40
6 6 6 6 4 4 2 2 2 2 3 4 3 5 11 6 5 6 8 7 7 8 9 10 14 14 11 11 10 10 12 12 12 11 9 6 7 12 16 17 18 19 20 22 22 22 21 18 15 11 10 10 9 10 10 11 12 14 15 16 19 22 25 27 28 30 33 35 35 36 37 37 37 35 35 35 35 35 35 34 35 36 37 38 39 39 40 41 42 42 42 42 42 43 43 42 41
Wind_Direction
202 208 218 211 212 232 304 341 10 334 74 86 111 93 229 192 113 89 66 63 70 50 83 82 57 70 98 110 113 87 53 30 194 137 144 143 144 156 160 158 158 153 149 149 149 145 143 141 138 133 128 123 123 120 115 112 98 85 77 72 67 66 64 59 56 55 51 51 53 53 54 58 63 67 67 68 74 80 84 87 90 89 86 81 72 80 87 88 87 88 91 91 92 94 95 94 92
202 209 221 221 227 254 343 26 94 342 59 60 340 124 164 31 58 91 96 85 116 123 100 83 70 88 107 107 103 75 41 42 128 126 126 137 144 156 159 158 156 154 153 150 152 149 146 145 144 139 131 128 128 125 117 115 102 89 81 75 71 68 66 60 55 54 52 52 54 53 54 56 61 66 68 68 73 80 84 86 93 96 92 89 81 86 91 90 91 93 94 95 97 100 101 100 97
207 208 218 229 242 292 322 23 118 88 78 90 270 258 94 78 87 117 110 106 117 116 105 87 72 85 101 87 62 76 71 77 117 125 129 145 150 151 157 155 152 157 156 150 153 153 150 148 147 142 134 131 128 128 121 117 104 92 85 75 72 69 66 60 53 51 51 52 53 53 53 55 59 65 70 71 77 81 82 83 86 87 80 74 71 88 96 94 95 97 99 101 103 105 106 104 101
211 209 215 238 358 355 358 74 144 112 110 149 203 294 96 114 128 116 107 112 118 109 101 91 66 73 89 96 90 89 109 115 122 131 138 151 152 150 153 152 153 159 157 153 155 154 154 152 150 145 137 132 128 131 125 118 106 94 89 76 71 69 67 61 53 53 52 52 53 52 51 54 57 62 70 75 82 83 83 86 85 84 82 78 77 88 98 98 100 103 105 107 109 109 108 105 103
208 207 210 244 10 13 55 63 90 93 144 176 150 179 132 128 132 112 104 110 111 103 98 97 89 94 88 98 113 101 124 131 131 140 143 151 155 151 151 157 160 158 157 155 154 155 157 156 154 148 139 134 134 135 130 122 115 105 93 78 70 70 69 65 57 56 56 54 54 53 52 53 57 61 70 77 82 88 94 95 95 96 96 95 94 99 101 102 106 108 109 110 112 112 111 107 105
201 207 216 240 266 288 29 72 71 70 179 169 128 156 148 132 128 114 101 101 99 101 98 90 119 113 86 86 104 121 142 147 147 150 147 153 160 157 157 164 163 158 155 154 155 156 159 159 153 149 144 139 140 138 134 133 127 122 105 82 71 71 70 69 62 59 59 57 55 54 54 54 59 62 70 79 79 93 101 101 102 104 105 105 107 113 107 106 109 111 111 112 114 114 113 112 110
203 212 214 236 264 280 90 114 114 69 13 113 131 149 147 130 126 119 106 101 94 110 101 94 123 105 89 117 110 122 156 174 162 154 149 156 164 161 159 164 166 164 156 156 159 157 162 161 152 151 150 145 145 144 142 141 136 132 122 99 81 76 74 76 69 61 61 61 58 56 57 56 58 62 70 80 83 96 107 109 110 109 113 117 121 123 114 110 110 111 111 110 112 111 111 112 113
207 236 212 150 5 36 91 102 91 130 26 57 127 136 135 132 130 126 125 127 132 148 115 109 125 98 106 148 118 122 153 169 170 155 150 159 167 162 160 166 170 168 159 159 163 163 167 162 154 151 155 155 151 151 148 144 142 142 134 118 97 89 82 81 77 67 64 63 60 58 58 58 57 61 69 78 83 96 110 121 126 126 130 132 133 128 116 111 110 111 111 109 108 106 105 107 108
220 264 261 112 61 35 78 77 43 108 51 66 116 130 132 136 138 136 139 140 148 148 129 126 126 121 136 128 114 140 158 167 172 155 151 157 162 161 159 166 172 170 163 163 167 169 173 168 160 156 158 163 158 159 156 151 151 149 144 132 115 104 89 80 80 72 68 64 59 57 59 60 58 59 66 75 81 92 106 121 133 139 143 140 135 124 114 111 113 114 112 109 106 105 105 104 103
236 250 256 74 80 59 66 58 62 82 99 104 114 135 139 145 148 142 137 131 142 135 132 129 122 139 131 111 119 153 163 159 162 153 152 154 157 161 158 163 173 174 170 169 172 175 178 176 168 164 164 165 165 167 163 160 159 154 151 145 135 117 94 79 78 71 69 64 54 54 58 61 60 59 64 72 79 87 93 102 116 126 134 133 127 118 113 114 115 114 111 109 106 106 107 103 97
276 237 231 52 59 96 158 109 109 124 130 99 95 135 143 151 147 136 131 125 138 137 153 135 119 134 118 114 136 148 157 152 158 153 154 158 160 163 160 164 176 183 182 175 176 179 181 180 175 173 173 173 174 174 169 168 166 161 156 155 153 132 100 79 77 72 69 63 54 53 55 60 61 60 63 72 77 82 80 82 96 107 116 120 119 116 115 117 115 113 111 110 108 108 106 97 89
317 281 95 85 76 143 169 134 137 136 107 90 96 139 137 142 130 127 132 129 143 140 165 158 128 142 106 110 148 146 163 156 156 155 158 163 165 167 167 173 180 188 190 183 180 181 183 183 181 180 183 183 180 179 177 172 172 171 162 161 165 149 114 81 79 75 69 64 57 53 54 59 63 62 64 73 80 84 84 85 95 106 112 114 116 116 116 116 115 113 113 111 109 109 102 92 87
276 309 80 128 208 129 137 131 151 126 107 181 164 148 141 144 130 140 141 133 144 136 153 155 131 147 102 101 146 163 176 163 157 158 163 167 170 173 174 179 184 188 191 190 185 183 184 186 187 186 188 189 185 183 184 181 176 177 172 170 176 165 142 100 92 79 69 66 59 55 55 58 62 64 66 74 83 90 94 95 101 107 110 112 114 114 115 115 115 114 113 112 110 107 99 92 90
254 305 102 188 297 115 125 120 151 126 175 225 158 151 150 148 119 140 144 125 136 145 153 150 122 129 118 119 156 187 186 167 162 162 167 172 177 177 178 183 188 191 194 194 188 187 187 188 192 191 192 192 193 189 188 190 185 184 183 182 185 187 175 161 135 87 68 64 60 58 57 59 63 65 69 75 84 91 97 100 104 108 110 113 115 115 116 117 117 116 115 113 109 104 96 92 91
249 303 112 96 359 92 135 138 157 132 172 208 155 156 148 131 102 115 140 131 129 150 152 144 126 112 160 172 190 196 187 172 169 168 170 177 182 180 183 186 189 192 195 196 193 192 191 193 196 196 197 194 197 197 193 193 193 193 191 194 197 201 195 189 209 162 77 65 66 64 60 63 65 66 74 80 87 94 99 104 108 112 114 116 117 118 120 122 122 121 119 114 108 102 95 90 90
253 306 75 67 349 117 150 136 129 121 184 188 161 158 140 123 117 99 124 142 139 146 152 147 147 119 167 194 194 182 179 178 178 173 174 182 186 184 187 190 194 196 195 199 198 196 194 196 198 198 198 197 200 200 197 198 200 199 196 201 205 208 202 202 222 220 192 99 79 72 68 64 67 71 80 87 94 101 105 108 113 116 119 120 122 124 125 126 127 127 124 116 109 102 97 93 95
263 333 61 40 295 123 153 150 146 154 184 175 165 162 138 123 133 112 114 137 139 142 147 140 151 136 134 157 145 156 173 182 185 180 180 187 191 189 190 192 199 202 202 203 200 199 199 198 197 197 196 197 201 201 202 203 203 203 201 205 209 211 205 211 228 227 225 185 92 10 85 70 79 91 88 94 104 110 113 114 118 121 124 126 126 128 130 132 134 132 127 117 109 101 95 93 98
242 106 86 43 233 74 287 215 166 143 151 171 170 168 148 151 163 139 126 131 139 144 151 147 156 155 140 138 139 155 174 185 191 190 190 194 198 198 196 196 200 204 207 205 201 203 205 204 201 199 199 198 200 202 204 205 205 205 205 209 213 214 207 214 229 232 234 218 252 273 183 96 107 120 104 98 113 123 125 123 124 127 128 131 133 135 137 138 136 131 126 118 109 101 95 91 98
172 93 96 207 199 40 342 173 147 135 154 167 167 171 165 172 174 158 159 158 151 148 152 161 163 159 159 159 159 168 178 187 194 198 202 204 207 211 209 206 204 207 211 207 202 207 210 208 207 206 206 205 202 201 203 204 206 206 207 211 215 216 212 217 227 232 233 230 246 254 231 196 153 146 129 112 122 134 138 136 134 133 134 138 141 141 137 134 129 125 122 119 112 105 101 96 101
176 80 95 231 197 98 13 58 121 153 155 156 167 179 176 178 176 170 180 173 171 178 174 179 185 185 183 176 172 177 182 188 195 201 207 211 215 218 220 217 215 217 219 210 207 214 217 212 211 212 212 213 210 206 205 205 205 207 210 213 214 215 216 218 224 231 232 233 240 243 240 216 179 166 150 136 138 151 155 154 150 147 148 150 149 142 135 131 126 123 120 120 118 110 107 103 108
127 107 151 227 183 108 13 55 90 149 153 155 165 164 159 171 180 185 176 155 219 218 201 202 203 201 196 191 186 185 188 189 195 203 208 212 215 218 222 223 225 226 224 218 216 220 225 222 217 216 216 217 217 211 208 207 208 209 211 213 213 214 219 222 226 230 233 235 237 239 243 230 194 184 178 165 159 174 180 175 169 166 166 161 154 146 141 138 133 130 126 127 127 120 116 111 117
72 99 133 53 140 110 3 75 82 140 153 155 153 143 149 161 181 192 181 167 228 230 218 219 220 214 203 196 196 194 196 199 201 205 209 213 215 218 221 220 221 221 223 223 224 226 227 227 223 221 220 221 221 216 211 211 213 214 214 214 214 216 220 224 227 228 228 231 237 239 244 245 209 191 198 192 179 191 202 198 188 185 183 171 159 157 152 148 143 139 135 136 138 135 132 125 129
88 193 62 53 124 127 139 97 81 132 146 144 145 146 153 153 178 199 203 206 197 197 205 210 211 214 209 199 198 199 201 206 211 214 215 216 216 219 219 219 222 223 224 224 226 227 226 226 226 226 225 223 222 220 216 215 217 219 219 216 217 219 221 226 227 225 224 226 235 241 246 252 234 215 217 218 206 203 214 217 206 200 194 178 170 174 170 160 152 146 141 143 146 148 147 141 142
106 183 66 78 114 119 133 114 92 121 131 131 140 149 161 164 179 205 219 220 200 178 181 192 185 187 195 195 194 200 205 210 216 221 222 224 224 224 222 221 224 228 229 227 226 224 224 225 229 232 230 225 221 222 222 218 217 217 219 220 219 220 222 228 226 221 221 224 231 239 246 244 238 236 233 235 235 219 216 224 222 215 203 185 184 188 183 173 162 155 150 152 155 158 160 153 150
91 148 144 115 110 118 135 123 103 110 116 125 147 155 170 180 193 226 226 216 207 210 222 240 212 180 186 192 195 200 206 210 214 216 218 221 222 223 225 223 223 228 231 232 230 226 225 227 232 235 233 228 224 226 226 221 219 217 219 220 220 220 221 226 227 224 220 220 226 234 243 241 236 239 234 236 248 244 227 224 228 228 212 195 195 197 192 185 175 167 165 165 167 170 169 160 156
136 142 141 126 121 128 135 127 106 106 113 125 155 160 162 179 217 259 240 223 215 220 228 234 230 212 207 208 213 215 214 213 213 214 215 215 215 217 222 225 227 230 233 235 235 232 232 233 237 237 235 231 225 227 229 227 224 221 222 221 218 219 219 221 225 229 225 219 225 233 237 236 236 241 238 237 249 257 246 229 223 226 223 207 203 205 198 190 185 182 179 172 173 180 172 163 164
134 129 125 124 132 131 133 135 115 112 113 111 129 26 252 189 182 254 244 227 215 220 224 223 224 224 224 225 228 229 227 226 222 219 215 213 214 216 218 225 231 234 234 235 235 235 236 237 239 238 238 234 227 226 229 231 228 224 225 223 222 222 221 221 222 228 228 221 225 233 232 230 232 239 241 240 247 255 252 238 221 219 234 217 209 213 203 192 190 188 180 168 172 181 173 167 171
131 122 108 115 131 122 131 138 135 130 108 107 106 7 295 167 181 245 241 234 215 213 216 218 221 225 228 233 237 238 237 235 229 224 223 224 225 224 223 228 233 236 237 238 238 236 236 235 236 237 237 237 232 227 227 231 233 230 227 223 223 226 228 228 225 227 229 225 224 228 231 232 231 235 240 242 250 255 254 246 228 223 238 221 212 214 205 196 192 185 176 171 172 178 176 170 170
134 119 99 92 61 80 171 152 155 158 116 150 112 1 305 207 224 250 243 228 212 205 213 219 225 230 233 239 241 242 243 239 232 232 235 236 236 234 232 234 236 238 239 240 240 239 238 236 235 236 236 237 236 232 229 230 233 235 234 229 225 227 232 232 229 230 231 231 231 228 231 233 233 236 238 239 245 254 257 246 231 232 236 218 212 210 205 197 188 184 179 176 175 177 176 167 166
141 109 101 102 31 343 227 174 162 153 134 179 117 323 283 243 244 255 241 213 204 201 213 222 230 235 234 237 239 241 242 239 240 244 245 241 238 236 235 235 236 238 239 238 239 240 241 239 237 236 235 233 234 234 232 230 231 234 237 238 235 233 232 228 227 231 234 236 238 237 234 232 234 237 238 238 238 246 251 238 228 236 230 215 212 209 204 194 185 187 184 177 176 177 173 165 169
144 77 79 96 93 285 276 171 154 144 183 203 104 182 255 276 280 268 226 213 207 206 214 223 231 234 234 239 240 242 241 242 248 251 249 246 241 239 235 234 234 235 237 239 240 241 241 241 240 238 237 234 233 234 234 233 233 234 237 239 241 240 237 229 225 228 233 236 239 241 240 235 235 237 241 241 235 238 241 232 230 237 227 217 214 208 201 192 185 189 189 180 175 176 172 167 174
73 95 307 333 134 243 307 247 163 155 216 215 108 194 259 278 294 251 199 209 210 216 224 229 237 242 244 246 244 244 244 244 248 249 249 247 243 240 237 234 234 235 237 239 240 241 241 241 241 240 239 237 234 234 235 235 235 236 239 239 241 244 245 240 231 226 229 233 236 241 244 240 236 238 243 240 233 236 236 232 237 237 227 223 219 209 198 194 189 189 189 185 178 174 174 173 178
0 101 205 241 139 201 299 314 201 150 147 242 157 214 270 278 264 178 188 206 212 224 234 235 239 243 244 245 246 246 245 244 244 246 248 247 245 241 238 237 237 237 238 239 240 241 242 242 241 241 240 239 237 235 235 236 237 239 242 243 245 245 248 249 241 232 230 232 231 233 238 237 232 235 240 236 233 237 235 234 238 233 226 227 225 214 200 196 195 192 186 185 184 178 178 180 181
295 54 185 226 161 161 216 293 266 134 118 244 218 225 254 263 258 228 212 216 222 232 242 245 241 239 240 241 243 246 245 246 249 252 252 251 250 244 239 239 239 239 238 238 239 241 242 242 242 242 241 241 240 238 238 239 239 241 244 245 247 247 248 250 248 240 236 234 228 225 229 230 230 233 235 233 235 238 238 238 236 228 223 225 226 218 205 199 198 197 188 183 188 188 184 186 185
196 182 177 248 168 147 191 223 236 137 114 233 186 240 259 266 270 258 248 243 237 241 248 253 250 244 242 239 241 244 245 249 258 262 261 257 253 246 242 240 241 241 240 238 238 238 238 239 238 238 240 240 241 241 241 241 242 243 245 245 245 246 247 249 249 246 241 235 227 224 226 229 232 233 231 234 240 241 239 237 231 224 220 222 223 216 208 204 198 195 192 184 186 191 192 191 188
171 173 150 167 147 164 225 207 261 133 125 237 214 225 255 265 274 268 265 259 243 244 249 251 252 250 245 241 241 243 245 254 264 267 264 260 255 249 244 241 241 242 241 240 237 237 237 237 237 237 238 241 242 243 243 244 244 244 245 244 244 245 246 247 248 247 244 236 228 225 226 229 231 229 229 235 244 245 239 232 227 223 221 221 222 219 212 208 201 193 193 191 185 185 191 193 191
138 125 104 137 133 105 250 245 305 81 124 248 233 236 259 261 268 269 271 270 246 237 242 245 249 249 246 242 242 245 251 259 265 263 260 258 255 251 247 242 239 240 241 239 236 237 237 237 240 240 241 244 245 246 247 248 248 247 246 245 245 245 246 247 246 246 246 240 231 225 224 226 227 227 230 236 245 244 233 225 224 222 221 222 222 222 215 207 201 192 191 194 191 186 187 191 193
89 103 97 77 108 161 220 224 288 356 114 265 291 292 271 261 261 266 267 269 249 234 232 241 246 248 248 245 245 250 256 261 260 256 253 251 250 250 249 244 239 239 240 240 238 237 238 238 240 243 245 247 248 249 249 250 251 250 248 247 246 246 246 246 245 245 246 244 238 229 225 226 227 228 228 234 238 231 221 219 221 220 222 222 219 218 214 206 197 192 191 192 192 194 192 190 193
74 87 95 63 111 163 306 319 291 15 135 270 352 346 280 269 260 261 258 250 252 247 238 243 249 250 251 249 250 253 255 256 255 252 250 248 248 248 247 247 244 241 240 240 240 239 239 239 241 245 248 249 250 251 251 250 250 250 248 246 245 244 244 244 243 243 243 243 238 229 222 220 221 221 222 229 229 218 214 218 220 220 221 222 219 215 210 203 197 194 196 196 192 194 194 191 193
80 94 108 187 226 129 283 300 286 291 121 266 335 324 281 281 279 266 260 250 253 258 253 253 254 254 256 256 257 258 254 250 249 250 249 245 244 244 246 249 248 243 239 237 239 240 240 242 245 250 253 253 252 252 253 252 251 250 247 244 243 241 240 240 239 238 236 236 231 221 215 214 213 214 218 228 224 214 216 220 220 221 221 222 221 215 207 202 201 199 199 201 198 196 193 192 193
1 112 130 175 146 121 163 297 326 351 3 353 353 327 287 301 322 288 281 271 257 261 261 258 255 254 257 258 256 255 254 249 246 245 246 244 243 245 248 250 249 247 244 242 242 243 246 250 254 257 256 255 254 254 255 255 255 254 250 245 242 240 238 238 237 236 232 228 224 217 214 216 217 216 221 227 220 211 216 221 220 221 222 221 217 213 210 206 206 206 202 202 205 204 196 192 193
332 235 157 166 143 124 104 26 28 31 347 319 32 355 293 310 321 283 298 330 282 277 281 270 266 259 253 251 248 247 248 246 246 246 246 246 244 244 245 246 248 249 250 250 250 252 255 258 260 259 256 256 257 258 259 260 260 258 255 250 247 245 244 242 241 239 235 227 222 217 215 215 219 221 223 226 219 212 217 219 215 215 217 215 210 209 210 209 209 210 207 205 206 207 200 195 195
233 229 171 148 122 107 88 62 52 69 268 286 70 103 271 301 299 267 273 285 278 285 289 272 270 267 251 244 244 244 243 242 243 244 244 244 241 240 242 245 248 251 253 254 255 257 258 259 260 259 258 258 260 262 262 262 261 259 257 253 250 249 248 248 245 242 236 228 222 218 217 217 219 223 223 222 220 217 218 214 209 208 209 207 206 207 209 211 217 215 209 207 205 203 203 201 198
210 231 153 122 100 113 116 93 94 201 247 320 17 126 242 290 267 253 258 267 279 283 276 267 265 264 254 246 246 241 238 239 241 241 240 240 239 240 244 248 250 252 253 254 254 256 257 258 259 259 259 259 259 261 262 262 260 258 255 252 250 247 246 247 245 239 235 229 222 217 219 220 218 220 218 217 218 217 213 210 206 204 204 204 205 209 212 216 221 217 209 207 206 204 205 207 205
235 228 136 120 111 123 118 97 96 11 40 321 316 103 231 272 267 273 265 254 275 270 258 260 264 261 251 245 240 225 220 228 236 240 240 239 239 242 246 249 251 249 248 250 251 253 254 255 256 257 258 259 260 262 262 262 260 257 253 250 248 245 244 243 238 233 229 226 221 216 218 219 216 216 215 215 217 216 211 207 205 204 204 206 208 212 218 221 223 217 210 206 205 205 205 208 209
201 167 86 67 73 81 79 94 97 34 38 260 259 198 219 267 272 286 42 204 257 262 259 263 260 247 231 225 216 207 215 225 233 239 239 238 238 240 243 243 242 240 239 242 244 245 247 249 251 255 259 262 264 265 264 263 261 257 252 247 245 244 242 238 232 224 218 217 215 213 215 216 213 213 214 215 217 215 210 206 205 205 207 209 213 216 220 223 222 216 210 206 204 204 204 207 209
128 97 60 41 27 36 43 64 82 54 297 257 240 205 199 281 278 249 191 209 232 237 266 274 245 210 196 192 198 212 224 227 232 240 239 234 229 229 233 232 229 226 226 229 231 234 238 244 250 256 260 264 267 268 269 267 264 260 254 248 244 242 239 235 229 221 215 214 212 212 214 212 210 212 215 217 218 216 211 207 205 207 210 213 218 220 221 222 219 213 210 208 206 205 204 206 209
99 83 76 61 353 13 19 2 45 87 258 262 265 239 177 244 267 255 255 265 243 196 195 231 223 197 185 189 205 216 223 227 232 241 238 226 219 219 221 218 211 205 207 214 219 226 233 240 248 255 262 267 272 276 276 274 271 265 257 249 243 239 237 234 229 223 220 218 216 214 213 212 210 210 212 215 219 218 213 209 208 208 211 217 222 221 218 219 217 211 209 208 207 207 206 209 210
76 90 96 91 342 9 3 325 23 223 248 258 290 319 211 237 250 259 275 279 262 210 201 222 214 195 191 202 209 207 214 226 229 228 225 216 213 214 208 201 194 189 195 208 218 225 230 237 246 256 265 270 275 282 282 280 276 271 262 251 243 239 236 233 228 223 223 224 222 219 217 216 213 211 212 216 219 219 216 214 213 213 214 218 225 222 215 215 215 210 208 208 208 209 208 210 213
130 133 127 135 131 106 257 274 279 260 262 268 300 300 260 277 267 244 245 253 262 269 253 230 207 198 214 219 214 222 228 230 230 224 217 213 212 209 200 195 192 190 196 209 220 227 233 239 247 257 265 267 273 278 279 280 281 277 267 254 245 240 236 233 228 223 222 224 225 224 222 218 216 219 223 224 223 221 219 219 218 217 217 219 225 222 215 214 215 211 209 208 208 211 211 211 213
174 160 132 144 158 158 198 214 205 243 275 284 296 267 207 220 269 251 245 262 280 280 246 221 208 220 241 232 238 255 247 241 242 232 224 224 221 218 212 207 206 207 211 221 226 228 235 243 251 258 262 265 272 276 276 278 282 281 271 257 247 242 238 234 230 224 222 224 224 223 222 220 221 228 234 231 226 223 222 222 221 220 219 221 225 224 218 216 217 214 210 210 211 212 213 213 214
242 145 111 158 188 148 144 183 179 173 297 294 263 235 213 211 267 272 268 271 275 268 251 241 240 243 244 252 263 263 261 264 257 243 239 238 236 233 228 222 221 224 232 241 239 234 238 247 252 255 257 261 272 278 277 277 281 282 275 262 252 245 241 236 231 225 222 221 222 222 223 225 228 232 236 231 226 224 225 224 223 224 224 223 225 226 222 219 219 216 212 212 214 215 215 215 215
204 135 172 220 177 119 119 228 26 92 258 269 217 250 281 320 289 278 274 268 265 270 273 268 262 259 258 266 269 268 274 279 270 260 258 254 250 247 244 242 242 244 249 253 252 246 244 249 252 252 253 258 274 284 280 279 283 286 280 268 257 249 244 240 233 227 222 221 223 223 223 227 231 233 233 230 227 226 226 224 224 227 228 227 229 228 224 222 223 221 218 216 216 217 217 217 217
129 166 217 214 102 82 108 179 348 52 257 271 232 248 280 317 278 302 349 334 280 253 257 261 262 261 258 258 260 267 277 282 277 271 265 257 253 253 254 255 257 258 257 256 256 252 247 247 249 249 253 263 281 288 284 281 285 291 286 274 263 254 247 243 237 231 227 224 223 222 223 228 231 230 227 226 228 228 226 225 227 230 231 232 233 229 226 225 226 225 223 221 219 219 219 219 219
127 173 192 122 117 232 117 149 201 150 248 278 277 263 254 214 226 266 308 309 298 236 235 243 251 252 249 249 254 265 276 279 276 273 269 264 261 263 265 264 263 261 258 254 252 249 244 242 243 246 253 264 275 281 283 281 283 290 287 278 268 258 250 244 240 235 230 224 221 223 227 230 228 225 224 225 228 228 225 226 230 232 232 234 234 230 227 228 228 228 225 223 221 221 221 221 220
46 74 86 92 129 174 171 161 166 156 202 259 302 305 254 222 201 190 227 253 249 236 234 231 237 240 243 246 253 264 273 275 276 277 274 271 277 287 287 280 273 265 260 256 250 245 243 241 241 243 247 257 268 276 282 282 283 285 282 276 269 261 252 246 241 236 230 225 223 225 227 225 223 223 224 228 230 226 224 228 233 234 234 235 235 230 228 229 229 229 226 224 222 222 222 222 222
160 148 187 205 90 113 157 172 146 137 157 204 283 290 264 240 189 179 204 234 239 226 216 224 232 236 242 247 248 255 263 268 274 275 271 274 298 306 302 296 286 270 260 253 245 242 243 242 239 239 246 256 265 273 279 280 281 280 277 273 269 262 255 248 241 235 230 226 225 225 223 221 222 224 224 230 232 226 224 229 233 235 235 237 236 232 230 230 230 228 227 225 223 223 223 223 223
175 180 190 183 153 123 147 243 262 122 156 178 171 276 275 247 178 195 205 216 232 209 191 210 228 236 244 239 233 247 258 262 268 269 268 278 301 303 302 299 290 276 263 253 244 240 241 241 238 238 246 256 263 268 272 275 275 275 274 270 266 261 256 250 243 237 231 229 227 225 224 224 225 225 226 230 230 225 225 229 232 234 236 237 238 235 232 231 230 228 226 225 224 223 223 223 224